Location: Goettingen
(51.5300°N, 9.9433°E)
Time: 03:33:09
(UTC+01:00)

ISS - Pass Details

Date: 12 March 2026
Orbit: 417 x 426 km, 51.6° (Epoch: 16 March)

Event Time Altitude Azimuth Distance (km) Brightness Sun altitude
Rises 20:30:58 0° 232° (SW) 2,375 0.5 -20.8°
Reaches altitude 10° 20:33:08 10° 225° (SW) 1,511 -0.7 -21.1°
Enters shadow 20:34:38 22° 211° (SSW) 970 -1.9 -21.3°
